Updated 18-Jan-2024. Data version 1.1, RHmax=100,Scatmax=2500 
Year,Month,Day,Hour,Temp_degC,Pressure,%RH,Back_Scat_Red,Back_Scat_Green,Back_Scat_Blue,Total_Scat_Red,Total_Scat_Green,Total_Scat_Blue
2019, 04, 03, 15,   33.0,  86.11,     26,    0.8,    0.9,    1.3,   5.6,   7.3,   10.3
2019, 04, 03, 16,   33.3,  86.12,     26,    0.7,    0.8,    1.2,   5.3,   7.0,   10.0
2019, 04, 03, 17,   30.9,  86.12,     31,    0.8,    0.9,    1.3,   5.3,   6.7,    9.7
2019, 04, 03, 18,   25.5,  86.05,     41,    1.4,    1.5,    2.2,   8.2,  10.3,   14.6
2019, 04, 03, 19,   22.3,  86.02,     49,    1.8,    2.1,    2.9,  11.5,  14.4,   20.0
2019, 04, 03, 20,   21.1,  86.04,     54,    1.8,    2.1,    3.0,  12.3,  15.5,   21.1
2019, 04, 03, 21,   19.9,  86.05,     62,    1.7,    1.9,    2.8,  10.4,  12.5,   17.1
2019, 04, 03, 22,   18.6,  86.02,     70,    1.7,    2.0,    2.9,   9.3,  11.0,   15.2
2019, 04, 03, 23,   17.7,  85.97,     74,    1.5,    1.7,    2.6,   6.9,   8.0,   11.4
2019, 04, 04, 00,   17.0,  85.93,     76,    1.7,    1.9,    2.9,   7.5,   8.8,   12.5
2019, 04, 04, 01,   16.5,  85.89,     77,    1.9,    2.3,    3.4,   9.0,  10.7,   14.9
2019, 04, 04, 02,   16.1,  85.88,     79,    2.3,    2.8,    4.0,  11.1,  13.5,   18.5
2019, 04, 04, 03,   15.6,  85.84,     81,    2.6,    3.2,    4.6,  12.9,  15.6,   21.2
2019, 04, 04, 04,   15.2,  85.84,     82,    3.0,    3.8,    5.4,  14.7,  18.0,   24.1
2019, 04, 04, 05,   15.1,  85.90,     82,    3.3,    4.2,    5.9,  17.1,  20.7,   27.5
2019, 04, 04, 06,   15.9,  85.99,     80,    3.7,    4.7,    6.6,  19.0,  23.1,   30.9
2019, 04, 04, 07,   17.9,  86.04,     74,    3.6,    4.5,    6.1,  19.8,  24.2,   32.3
2019, 04, 04, 08,   22.0,  86.08,     62,    3.9,    4.7,    6.5,  23.4,  28.9,   38.2
2019, 04, 04, 09,   24.8,  86.07,     55,    4.6,    5.5,    7.3,  30.7,  38.9,   51.0
2019, 04, 04, 10,   27.4,  86.04,     45,    5.8,    6.9,    8.9,  39.4,  50.5,   65.9
2019, 04, 04, 11,   28.1,  85.94,     40,    3.7,    4.4,    5.8,  24.3,  32.8,   44.8
2019, 04, 04, 12,   27.8,  85.84,     39,    3.6,    4.2,    5.6,  23.2,  31.8,   43.9
2019, 04, 04, 13,   28.8,  85.77,     35,    3.0,    3.5,    4.6,  19.2,  26.6,   37.0
2019, 04, 05, 16,   16.7,  85.73,     77,    2.2,    2.9,    3.3,  14.5,  18.2,   23.2
2019, 04, 05, 17,   16.6,  85.76,     77,    2.2,    3.0,    3.5,  14.9,  19.0,   24.5
2019, 04, 05, 18,   15.6,  85.80,     81,    3.4,    4.5,    5.5,  20.8,  27.1,   35.6
2019, 04, 05, 19,   14.7,  85.85,     83,    5.6,    7.3,    8.9,  40.0,  51.2,   66.0
2019, 04, 05, 20,   14.1,  85.94,     83,    4.9,    6.3,    7.6,  35.8,  44.3,   55.5
2019, 04, 05, 21,   14.1,  86.02,     81,    5.6,    7.1,    8.6,  59.2,  66.7,   78.6
2019, 04, 05, 22,   14.0,  85.96,     80,    4.3,    5.3,    6.4,  46.5,  52.4,   62.2
2019, 04, 05, 23,   13.8,  85.91,     79,    3.2,    4.1,    4.8,  27.8,  32.4,   39.5
2019, 04, 06, 00,   14.2,  85.99,     78,    3.1,    3.9,    4.6,  27.6,  31.9,   38.9
2019, 04, 06, 01,   13.9,  85.90,     81,    4.6,    5.9,    7.2,  39.8,  48.6,   61.1
2019, 04, 06, 02,   13.4,  85.81,     84,    5.5,    7.2,    8.7,  44.4,  52.4,   64.6
2019, 04, 06, 03,   13.3,  85.82,     82,    7.0,    9.0,   11.0,  56.0,  67.6,   84.8
2019, 04, 06, 04,   13.1,  85.85,     82,    6.3,    8.1,    9.9,  50.0,  60.9,   76.9
2019, 04, 06, 05,   13.3,  85.89,     80,    5.0,    6.3,    7.7,  41.7,  50.9,   64.2
2019, 04, 06, 06,   13.3,  85.94,     81,    4.5,    5.8,    7.0,  37.5,  45.6,   57.5
2019, 04, 06, 07,   13.7,  85.98,     81,    4.5,    5.8,    7.1,  38.4,  47.1,   59.2
2019, 04, 06, 08,   16.0,  86.08,     73,    2.5,    3.2,    3.7,  20.7,  25.8,   32.8
2019, 04, 06, 09,   21.1,  86.13,     58,    1.0,    1.3,    1.4,  11.1,  14.9,   19.6
2019, 04, 06, 10,   26.7,  86.19,     41,   -0.4,   -0.4,   -1.0,   2.4,   3.8,    4.8
2019, 04, 06, 11,   27.7,  86.18,     36,   -0.8,   -0.9,   -1.6,   0.7,   1.5,    1.6
2019, 04, 06, 12,   29.4,  86.14,     32,   -0.9,   -1.1,   -1.9,   0.1,   0.7,    0.5
2019, 04, 06, 13,   30.1,  86.11,     29,   -1.0,   -1.1,   -1.9,  -0.1,   0.5,    0.2
2019, 04, 06, 14,   31.1,  86.07,     29,   -1.0,   -1.1,   -1.9,   0.1,   0.8,    0.5
2019, 04, 06, 15,   29.8,  86.02,     31,   -0.9,   -1.0,   -1.9,   0.4,   1.2,    1.1
2019, 04, 06, 16,   26.6,  85.95,     36,    0.5,    0.6,    0.8,   2.8,   3.8,    5.0
2019, 04, 06, 17,   26.1,  85.94,     39,    0.7,    0.9,    1.1,   3.8,   5.0,    6.6
2019, 04, 06, 18,   22.9,  85.92,     48,    1.2,    1.4,    1.9,   5.9,   7.6,   10.4
2019, 04, 06, 19,   21.0,  85.99,     56,    1.3,    1.5,    2.0,   6.2,   7.9,   10.6
2019, 04, 06, 20,   17.9,  85.97,     71,    1.8,    2.2,    2.9,   8.4,  10.7,   14.4
2019, 04, 06, 21,   18.0,  86.03,     69,    1.9,    2.2,    3.0,   8.4,  10.5,   14.1
2019, 04, 06, 22,   17.9,  86.04,     66,    2.1,    2.4,    3.3,   9.8,  12.4,   16.5
2019, 04, 06, 23,   17.2,  86.03,     67,    2.6,    3.1,    4.1,  13.8,  17.1,   22.4
2019, 04, 07, 00,   16.7,  86.04,     69,    2.3,    2.8,    3.7,  11.7,  14.7,   19.5
2019, 04, 07, 01,   15.7,  86.04,     74,    2.5,    3.1,    4.1,  12.8,  16.3,   21.7
2019, 04, 07, 02,   14.6,  86.02,     79,    3.0,    3.7,    4.9,  14.4,  18.4,   24.8
2019, 04, 07, 03,   14.4,  85.99,     80,    3.2,    4.1,    5.4,  14.5,  18.6,   25.0
2019, 04, 07, 04,   14.2,  85.98,     79,    3.0,    3.8,    5.1,  13.7,  17.6,   23.6
2019, 04, 07, 05,   13.6,  86.02,     82,    3.8,    4.8,    6.4,  18.4,  23.6,   31.3
2019, 04, 07, 06,   13.2,  86.07,     84,    4.7,    6.1,    8.0,  21.8,  27.8,   36.6
2019, 04, 07, 07,   14.2,  86.13,     81,    4.0,    5.2,    6.7,  17.4,  22.4,   29.7
2019, 04, 07, 08,   16.6,  86.21,     74,    3.2,    3.8,    5.0,  15.5,  20.8,   28.6
2019, 04, 07, 09,   19.1,  86.27,     65,    1.8,    2.1,    2.8,   8.3,  11.0,   15.0
2019, 04, 07, 10,   20.1,  86.28,     63,    2.3,    2.6,    3.4,  12.8,  17.2,   23.6
2019, 04, 07, 11,   23.2,  86.26,     54,    2.2,    2.5,    3.2,  12.4,  17.1,   23.5
2019, 04, 07, 12,   23.7,  86.19,     52,    2.2,    2.5,    3.2,  12.3,  16.9,   23.2
2019, 04, 07, 13,   25.2,  86.18,     49,    1.9,    2.3,    2.8,  10.4,  14.4,   19.8
2019, 04, 07, 14,   27.0,  86.17,     43,    1.7,    2.0,    2.6,   9.6,  13.2,   18.1
2019, 04, 07, 15,   27.3,  86.14,     43,    1.7,    2.0,    2.5,   9.4,  13.0,   17.7
2019, 04, 07, 16,   30.4,  86.14,     38,    1.2,    1.6,    1.9,   7.9,  11.3,   15.5
2019, 04, 07, 17,   30.1,  86.13,     38,    1.4,    1.8,    2.1,   9.4,  13.1,   17.8
2019, 04, 07, 18,   23.1,  86.01,     53,    2.3,    2.8,    3.6,  14.6,  20.0,   27.2
2019, 04, 07, 19,   20.5,  86.09,     64,    4.7,    5.9,    7.7,  29.0,  38.9,   52.9
2019, 04, 07, 20,   19.3,  86.16,     68,    5.0,    6.2,    8.1,  31.9,  42.6,   57.7
2019, 04, 07, 21,   14.2,  86.11,     81,    3.5,    4.3,    5.7,  20.9,  26.3,   34.7
2019, 04, 07, 22,   13.7,  86.06,     84,    6.2,    8.0,   10.4,  41.5,  53.8,   70.8
2019, 04, 07, 23,   13.8,  86.07,     84,    5.3,    6.9,    8.9,  30.5,  38.9,   50.8
2019, 04, 08, 00,   14.3,  86.12,     82,    3.7,    4.8,    6.3,  16.7,  21.6,   29.0
2019, 04, 08, 01,   14.4,  86.09,     79,    3.2,    4.0,    5.2,  15.3,  19.8,   26.6
2019, 04, 08, 02,   14.4,  86.11,     79,    3.2,    4.0,    5.2,  16.3,  21.0,   27.8
2019, 04, 08, 03,   14.4,  86.04,     79,    4.2,    5.3,    6.9,  29.8,  37.8,   49.1
2019, 04, 08, 04,   14.8,  86.11,     76,    3.7,    4.4,    5.8,  24.1,  30.5,   40.0
2019, 04, 08, 05,   12.8,  86.18,     84,    4.0,    5.2,    6.7,  18.5,  22.6,   29.3
2019, 04, 08, 06,   12.2,  86.25,     86,    4.8,    6.4,    8.3,  15.0,  18.6,   24.1
2019, 04, 08, 07,   11.6,  86.26,     86,    6.6,    8.9,   11.5,  18.4,  23.2,   30.2
2019, 04, 08, 08,   12.2,  86.25,     83,    5.1,    6.6,    8.6,  17.4,  21.6,   28.1
2019, 04, 08, 09,   12.5,  85.94,     82,    4.8,    6.4,    8.2,  17.8,  22.0,   28.4
2019, 04, 08, 10,   17.3,  86.08,     67,    1.8,    2.2,    2.9,   6.6,   8.2,   10.9
2019, 04, 08, 11,   22.6,  86.20,     53,    1.3,    1.5,    2.0,   6.5,   8.3,   11.2
2019, 04, 26, 11,   31.3,  86.07,     19,    1.6,    1.9,    2.7,   9.2,  11.9,   16.3
2019, 04, 26, 12,   33.9,  86.05,     17,    2.0,    2.5,    3.4,  12.2,  16.0,   21.6
2019, 04, 26, 13,   32.7,  85.98,     17,    1.5,    1.8,    2.5,   8.9,  11.5,   15.8
2019, 04, 26, 14,   32.5,  85.96,     15,    1.5,    1.8,    2.6,   8.9,  11.5,   15.8
2019, 04, 26, 15,   31.8,  85.94,     17,    1.0,    1.1,    1.7,   6.0,   7.5,   10.5
2019, 04, 26, 16,   31.2,  85.94,     18,    0.9,    0.9,    1.5,   5.1,   6.3,    8.9
2019, 04, 26, 17,   28.2,  85.93,     26,    1.4,    1.6,    2.4,   7.8,   9.7,   13.5
2019, 04, 26, 18,   22.9,  85.89,     36,    2.6,    3.0,    4.4,  13.9,  17.2,   23.6
2019, 04, 26, 19,   20.8,  85.92,     41,    5.4,    6.9,    9.6,  28.6,  37.6,   51.7
2019, 04, 26, 20,   18.6,  85.92,     41,    5.6,    7.1,    9.9,  29.3,  38.6,   53.3
2019, 04, 26, 21,   17.0,  85.93,     47,    5.7,    7.1,    9.8,  31.0,  39.5,   53.5
2019, 04, 26, 22,   15.6,  85.92,     52,    6.6,    8.1,   10.9,  36.8,  46.1,   61.4
2019, 04, 26, 23,   14.5,  85.91,     53,    6.0,    7.3,    9.9,  35.0,  42.8,   56.2
2019, 04, 27, 00,   13.5,  85.89,     54,    4.9,    5.8,    8.0,  27.8,  34.3,   45.6
2019, 04, 27, 01,   13.3,  85.88,     54,    4.0,    4.8,    6.7,  21.8,  27.0,   36.5
2019, 04, 27, 02,   12.9,  85.87,     55,    3.4,    3.9,    5.6,  17.1,  20.7,   28.4
2019, 04, 27, 03,   11.9,  85.85,     58,    4.7,    5.5,    7.5,  25.9,  31.3,   41.7
2019, 04, 27, 04,   11.2,  85.85,     61,    5.0,    5.8,    8.0,  28.5,  34.7,   46.3
2019, 04, 27, 05,   11.2,  85.89,     61,    4.6,    5.4,    7.6,  26.5,  32.4,   43.6
2019, 04, 27, 06,   11.4,  85.94,     61,    3.2,    3.6,    5.3,  16.3,  19.7,   27.1
2019, 04, 27, 07,   15.6,  86.04,     55,    2.5,    2.8,    4.2,  12.1,  14.3,   19.8
2019, 04, 27, 08,   23.2,  86.18,     40,    1.6,    1.8,    2.8,   7.5,   8.9,   12.6
2019, 04, 27, 09,   28.1,  86.28,     29,    1.0,    1.1,    1.8,   4.8,   5.7,    8.4
2019, 04, 27, 10,   30.0,  86.32,     26,    1.0,    1.1,    1.8,   5.3,   6.4,    9.1
2019, 04, 27, 11,   33.4,  86.33,     18,    1.2,    1.7,    2.3,   6.7,   9.3,   12.2
2019, 04, 27, 12,   33.0,  86.28,     17,    1.3,    1.9,    2.4,   7.1,  10.1,   13.7
2019, 04, 27, 13,   32.8,  86.23,     16,    1.4,    2.0,    2.7,   7.3,  10.7,   14.7
2019, 04, 27, 14,   33.1,  86.20,     16,    1.5,    2.2,    3.0,   7.7,  11.3,   15.7
2019, 04, 27, 15,   34.1,  86.20,     14,    1.6,    2.4,    3.3,   8.1,  11.9,   16.6
2019, 04, 27, 16,   33.9,  86.20,     15,    1.8,    2.6,    3.6,   8.8,  13.2,   18.2
2019, 04, 27, 17,   29.1,  86.15,     21,    2.3,    3.2,    4.5,  11.3,  16.0,   22.3
2019, 04, 27, 18,   23.3,  86.12,     32,    3.4,    4.6,    6.4,  16.9,  23.6,   32.6
2019, 04, 27, 19,   21.3,  86.16,     35,    4.1,    5.5,    7.6,  20.9,  28.8,   39.8
2019, 05, 04, 17,   27.6,  86.10,     21,    7.2,    8.9,   11.4,  35.9,  53.5,   76.8
2019, 05, 04, 18,   25.3,  86.10,     25,    8.2,   10.2,   13.0,  41.3,  61.1,   87.6
2019, 05, 04, 19,   23.9,  86.13,     27,    8.9,   11.1,   14.4,  45.5,  66.7,   95.5
2019, 05, 04, 20,   22.3,  86.15,     34,   17.3,   22.0,   28.9,  93.5, 131.8,  184.7
2019, 05, 04, 21,   20.7,  86.18,     37,   17.4,   21.9,   28.7,  94.6, 134.6,  189.0
2019, 05, 04, 22,   19.7,  86.21,     36,   14.2,   17.7,   23.0,  76.4, 108.2,  151.8
2019, 05, 04, 23,   19.7,  86.23,     33,   10.7,   13.3,   17.2,  56.3,  80.3,  113.6
2019, 05, 05, 00,   19.2,  86.21,     33,    8.3,   10.1,   13.1,  43.3,  62.4,   88.9
2019, 05, 05, 01,   18.5,  86.20,     35,    7.5,    9.1,   11.8,  39.7,  56.9,   81.1
2019, 05, 05, 02,   17.3,  86.19,     40,    6.9,    8.3,   10.8,  37.3,  53.2,   75.6
2019, 05, 05, 03,   16.5,  86.19,     44,    6.2,    7.4,    9.7,  33.6,  47.8,   68.1
2019, 05, 05, 04,   16.1,  86.20,     48,    5.7,    6.8,    8.9,  31.1,  44.0,   62.3
2019, 05, 05, 05,   15.9,  86.24,     51,    5.4,    6.4,    8.5,  30.3,  42.2,   59.4
2019, 05, 05, 06,   15.0,  86.29,     54,    6.3,    7.5,    9.8,  36.5,  50.7,   71.0
2019, 05, 05, 07,   18.4,  86.38,     49,    7.5,    9.0,   11.8,  41.7,  58.2,   81.6
2019, 05, 05, 08,   24.5,  86.51,     38,    8.3,   10.2,   13.3,  46.4,  65.2,   90.8
2019, 05, 05, 09,   26.9,  86.61,     34,    7.6,    9.4,   12.1,  43.7,  61.0,   84.0
2019, 05, 05, 10,   28.8,  86.62,     33,    3.9,    4.8,    6.2,  23.9,  33.3,   45.6
2019, 05, 05, 11,   31.3,  86.61,     28,    2.9,    3.7,    4.7,  19.2,  26.7,   36.0
2019, 05, 05, 12,   32.2,  86.55,     24,    2.5,    3.1,    4.0,  17.3,  23.7,   31.7
2019, 05, 05, 13,   32.9,  86.51,     20,    2.1,    2.7,    3.5,  14.6,  20.3,   27.4
2019, 05, 05, 14,   33.7,  86.47,     16,    2.1,    2.7,    3.5,  14.2,  20.1,   27.3
2019, 05, 05, 15,   34.1,  86.45,     15,    2.2,    2.8,    3.5,  14.2,  20.4,   27.9
2019, 05, 05, 16,   33.3,  86.45,     15,    2.1,    2.7,    3.5,  14.0,  20.0,   27.2
2019, 05, 05, 17,   29.6,  86.41,     18,    2.1,    2.7,    3.4,  14.5,  20.0,   27.4
2019, 05, 05, 18,   24.9,  86.38,     25,    2.9,    3.6,    4.9,  18.9,  25.5,   35.0
2019, 05, 05, 19,   22.0,  86.40,     35,    7.4,    9.1,   11.8,  46.7,  60.8,   80.8
2019, 05, 05, 20,   20.1,  86.43,     42,    7.3,    9.0,   11.8,  46.9,  61.3,   82.3
2019, 05, 05, 21,   19.1,  86.47,     46,    5.6,    6.7,    8.9,  37.3,  49.4,   67.1
2019, 05, 05, 22,   18.9,  86.51,     47,    4.7,    5.6,    7.5,  32.7,  43.4,   59.1
2019, 05, 05, 23,   18.1,  86.51,     52,    5.0,    6.1,    8.0,  36.1,  47.7,   64.4
2019, 05, 06, 00,   17.1,  86.48,     56,    5.3,    6.4,    8.4,  39.2,  51.1,   68.7
2019, 05, 06, 01,   16.5,  86.45,     59,    4.9,    5.9,    7.8,  37.3,  48.4,   64.7
2019, 05, 06, 02,   15.8,  86.40,     62,    5.0,    6.0,    7.9,  38.4,  49.7,   66.4
2019, 05, 06, 03,   14.5,  86.37,     66,    5.2,    6.2,    8.2,  41.0,  52.5,   69.7
2019, 05, 06, 04,   14.0,  86.37,     68,    5.3,    6.3,    8.4,  42.0,  53.7,   71.4
2019, 05, 06, 05,   13.1,  86.39,     71,    5.5,    6.6,    8.7,  44.1,  56.1,   74.3
2019, 05, 06, 06,   12.8,  86.42,     72,    5.7,    6.9,    9.2,  45.7,  58.1,   76.8
2019, 05, 06, 07,   16.9,  86.49,     65,    5.4,    6.5,    8.6,  39.1,  49.9,   66.5
2019, 05, 06, 08,   26.0,  86.60,     44,    3.9,    4.8,    6.3,  26.3,  34.3,   46.1
2019, 05, 06, 09,   33.9,  86.72,     28,    2.9,    3.7,    4.8,  20.1,  26.8,   35.9
2019, 05, 06, 10,   33.8,  86.72,     24,    3.8,    4.8,    6.1,  25.0,  33.1,   43.9
2019, 05, 06, 11,   33.0,  86.67,     21,    2.9,    3.7,    4.8,  19.7,  26.5,   35.5
2019, 05, 06, 12,   35.8,  86.66,     16,    2.3,    3.0,    3.8,  16.2,  22.2,   29.8
2019, 05, 06, 13,   38.1,  86.62,     12,    2.0,    2.6,    3.2,  14.3,  19.8,   26.7
2019, 05, 06, 14,   38.5,  86.59,      9,    1.9,    2.6,    3.2,  14.1,  19.4,   26.0
2019, 05, 06, 15,   37.9,  86.56,      8,    2.0,    2.7,    3.4,  14.3,  19.6,   26.2
2019, 05, 06, 16,   37.1,  86.54,      8,    2.2,    2.9,    3.6,  14.9,  20.1,   26.8
2019, 05, 06, 17,   29.3,  86.45,     19,    3.3,    4.1,    5.4,  20.2,  26.8,   35.8
2019, 05, 06, 18,   24.1,  86.41,     30,    4.1,    5.0,    6.7,  24.1,  31.6,   42.5
2019, 05, 06, 19,   22.4,  86.47,     35,    5.3,    6.5,    8.7,  30.9,  40.2,   53.7
2019, 05, 06, 20,   21.4,  86.51,     38,    7.6,    9.4,   12.5,  44.1,  57.0,   75.9
2019, 05, 06, 21,   19.8,  86.54,     42,    8.8,   11.0,   14.6,  52.2,  67.5,   89.9
2019, 05, 06, 22,   18.3,  86.56,     46,    8.5,   10.6,   14.0,  50.7,  66.1,   88.4
2019, 05, 06, 23,   17.4,  86.57,     44,    6.8,    8.2,   11.0,  40.0,  53.1,   72.3
2019, 05, 07, 00,   17.2,  86.57,     42,    6.5,    7.9,   10.5,  38.0,  50.7,   69.5
2019, 05, 07, 01,   16.8,  86.57,     44,    6.6,    8.0,   10.6,  39.3,  52.7,   72.5
2019, 05, 07, 02,   15.6,  86.54,     49,    9.5,   11.4,   15.1,  58.2,  77.0,  104.5
2019, 05, 07, 03,   14.9,  86.50,     53,   12.0,   14.5,   18.8,  76.9, 101.4,  137.0
2019, 05, 07, 04,   14.5,  86.50,     56,   11.9,   14.2,   18.4,  78.1, 104.6,  142.4
2019, 05, 07, 05,   13.8,  86.53,     60,   12.2,   14.5,   18.9,  83.5, 112.7,  154.2
2019, 05, 07, 06,   13.3,  86.59,     63,   13.1,   15.6,   20.1,  92.8, 124.9,  170.0
2019, 05, 07, 07,   16.9,  86.66,     58,   13.2,   15.8,   20.5,  90.5, 121.8,  165.8
2019, 05, 07, 08,   24.2,  86.77,     43,    9.8,   11.8,   15.4,  63.0,  86.5,  118.0
2019, 05, 07, 09,   26.9,  86.84,     37,    8.2,    9.8,   12.7,  52.9,  73.0,   99.5
2019, 05, 07, 10,   28.6,  86.86,     34,    6.3,    7.5,    9.7,  41.3,  58.2,   79.9
2019, 05, 07, 11,   29.6,  86.80,     30,    5.8,    6.9,    8.9,  37.9,  54.0,   74.4
2019, 05, 07, 12,   31.2,  86.73,     26,    5.1,    6.2,    8.0,  33.6,  48.3,   66.9
2019, 05, 07, 13,   31.7,  86.64,     21,    5.2,    6.4,    8.1,  34.5,  50.2,   69.9
2019, 05, 07, 14,   31.8,  86.57,     18,    4.5,    5.6,    7.1,  30.2,  43.9,   60.7
2019, 05, 07, 15,   30.5,  86.52,     19,    4.2,    5.1,    6.6,  28.9,  41.3,   56.9
2019, 05, 07, 16,   29.6,  86.48,     20,    3.9,    4.7,    6.2,  27.5,  38.7,   52.9
2019, 05, 07, 17,   24.1,  86.41,     28,    4.6,    5.5,    7.3,  33.8,  46.2,   62.8
2019, 05, 07, 18,   20.5,  86.38,     38,    6.4,    7.7,   10.0,  47.6,  63.6,   85.4
2019, 05, 07, 19,   18.8,  86.38,     43,    8.3,   10.0,   13.1,  62.7,  83.3,  111.2
2019, 05, 07, 20,   18.1,  86.41,     47,    8.7,   10.3,   13.4,  68.3,  91.3,  122.6
2019, 05, 07, 21,   17.3,  86.40,     50,    7.5,    8.8,   11.6,  62.2,  83.7,  113.1
2019, 05, 07, 22,   16.2,  86.40,     57,    7.9,    9.2,   12.1,  71.7,  95.5,  127.9
2019, 05, 07, 23,   15.3,  86.36,     64,    8.9,   10.4,   13.6,  86.5, 113.5,  150.5
2019, 05, 08, 00,   14.6,  86.30,     69,   10.1,   11.9,   15.5, 102.0, 132.6,  174.6
2019, 05, 08, 01,   14.0,  86.27,     74,   12.0,   14.2,   18.5, 125.4, 161.0,  210.0
2019, 05, 08, 02,   13.5,  86.26,     77,   12.3,   14.7,   19.2, 132.2, 170.3,  221.7
2019, 05, 08, 03,   13.0,  86.22,     79,   13.4,   16.1,   21.0, 147.9, 189.0,  245.6
2019, 05, 08, 04,   12.5,  86.21,     81,   15.2,   18.4,   24.0, 171.3, 216.8,  279.1
2019, 05, 08, 05,   12.2,  86.20,     82,   15.7,   19.2,   25.0, 177.3, 224.4,  288.6
2019, 05, 08, 06,   12.0,  86.24,     83,   16.3,   19.9,   25.9, 181.1, 229.2,  295.2
2019, 05, 08, 07,   13.7,  86.30,     79,   13.8,   16.7,   21.8, 144.7, 186.2,  242.2
2019, 05, 08, 08,   15.4,  86.35,     73,   10.9,   13.0,   17.1, 112.9, 147.6,  194.2
2019, 05, 08, 09,   18.6,  86.40,     62,    8.3,    9.8,   12.9,  79.5, 105.9,  141.2
2019, 05, 08, 10,   23.3,  86.42,     46,    5.3,    6.2,    8.2,  45.0,  61.8,   83.8
2019, 05, 08, 11,   26.0,  86.36,     36,    4.1,    4.8,    6.3,  33.6,  46.6,   63.3
2019, 05, 08, 12,   26.0,  86.31,     33,    3.6,    4.2,    5.6,  29.3,  41.0,   55.8
2019, 05, 08, 13,   21.9,  86.22,     41,    4.4,    5.1,    6.9,  35.5,  48.4,   65.3
2019, 05, 08, 14,   19.0,  86.15,     52,    7.2,    8.4,   11.0,  63.0,  83.1,  109.9
2019, 05, 08, 15,   20.2,  86.08,     48,    7.0,    8.2,   10.7,  60.6,  80.7,  107.3
2019, 05, 08, 16,   20.5,  86.00,     49,    6.9,    8.1,   10.6,  61.0,  81.6,  108.3
2019, 05, 08, 17,   20.4,  85.98,     48,    6.6,    7.8,   10.2,  59.2,  79.1,  105.2
2019, 05, 08, 18,   16.7,  85.96,     59,    8.1,    9.6,   12.7,  73.7,  96.7,  127.7
2019, 05, 08, 19,   16.4,  85.96,     61,    8.3,    9.9,   13.0,  77.1, 100.7,  132.4
2019, 05, 08, 20,   16.1,  85.96,     62,    8.4,   10.0,   13.2,  77.5, 101.2,  133.2
2019, 05, 08, 21,   15.2,  85.95,     66,   16.2,   20.1,   26.5, 140.1, 181.2,  237.5
2019, 05, 08, 22,   13.9,  85.95,     70,   12.0,   14.5,   19.1, 113.5, 145.6,  189.4
2019, 05, 08, 23,   14.3,  85.95,     69,   10.0,   12.0,   15.7,  94.0, 120.7,  157.2
2019, 05, 09, 00,   13.7,  85.96,     71,   11.4,   13.8,   18.0, 109.9, 140.3,  181.8
2019, 05, 09, 01,   13.4,  85.94,     73,   10.0,   12.1,   15.9,  99.9, 127.5,  165.9
2019, 05, 09, 02,   12.4,  85.89,     75,   11.3,   13.7,   17.8, 116.8, 147.4,  189.2
2019, 05, 09, 03,   11.5,  85.83,     79,   11.8,   14.4,   18.8, 123.8, 155.2,  199.2
2019, 05, 09, 04,   11.7,  85.80,     78,   11.9,   14.5,   18.9, 123.7, 155.6,  199.7
2019, 05, 09, 05,   11.9,  85.84,     76,   11.1,   13.5,   17.8, 110.7, 139.8,  180.3
2019, 05, 09, 06,   12.2,  85.89,     73,   12.7,   15.5,   20.2, 129.2, 161.5,  206.6
2019, 05, 09, 07,   14.5,  85.95,     69,   11.5,   13.9,   18.2, 109.3, 137.9,  177.3
2019, 05, 09, 08,   20.8,  86.09,     54,    8.0,    9.6,   12.7,  68.7,  89.2,  116.8
2019, 05, 09, 09,   26.0,  86.19,     39,    4.5,    5.3,    6.9,  35.6,  47.1,   62.1
2019, 05, 09, 10,   25.7,  86.19,     36,    3.4,    4.0,    5.2,  26.4,  35.2,   46.9
2019, 05, 09, 11,   25.2,  86.16,     35,    3.0,    3.5,    4.6,  22.3,  29.9,   40.3
2019, 05, 09, 12,   25.8,  86.12,     33,    2.4,    2.7,    3.7,  17.9,  24.7,   33.9
2019, 05, 09, 13,   25.7,  86.05,     32,    3.2,    3.7,    4.9,  23.5,  32.5,   44.4
2019, 05, 09, 14,   25.9,  86.04,     31,    3.2,    3.8,    5.0,  23.4,  32.5,   44.6
2019, 05, 09, 15,   26.2,  86.04,     30,    3.3,    4.0,    5.4,  23.7,  33.3,   45.9
2019, 05, 09, 16,   25.6,  86.04,     31,    3.1,    3.8,    5.1,  22.1,  30.9,   42.7
2019, 05, 09, 17,   22.6,  86.03,     37,    4.1,    4.9,    6.6,  27.3,  36.7,   50.1
2019, 05, 09, 18,   20.7,  86.05,     43,    4.8,    5.8,    7.7,  30.8,  41.7,   57.2
2019, 05, 09, 19,   19.8,  86.10,     42,    5.6,    6.8,    9.1,  34.1,  44.9,   61.2
2019, 05, 09, 20,   16.5,  86.11,     36,    4.7,    5.5,    7.2,  28.3,  34.5,   44.9
2019, 05, 09, 21,   14.9,  86.11,     37,    5.7,    6.7,    8.7,  34.0,  40.8,   52.6
2019, 05, 09, 22,   13.9,  86.10,     38,    5.8,    6.7,    8.7,  35.6,  42.0,   53.0
2019, 05, 09, 23,   13.1,  86.09,     40,    3.6,    4.0,    5.3,  20.9,  24.1,   31.3
2019, 05, 10, 16,   25.9,  86.25,     30,    2.9,    3.4,    5.0,  20.0,  27.2,   37.4
2019, 05, 10, 17,   24.3,  86.25,     32,    3.6,    4.3,    6.2,  23.4,  31.2,   42.9
2019, 05, 10, 18,   20.7,  86.24,     40,    5.0,    6.0,    8.5,  31.1,  41.4,   56.8
2019, 05, 10, 19,   19.7,  86.27,     43,    5.6,    6.8,    9.5,  34.3,  45.7,   62.3
2019, 05, 10, 20,   19.0,  86.31,     46,    8.5,   10.5,   14.4,  51.0,  67.8,   92.3
2019, 05, 10, 21,   18.7,  86.32,     47,    7.7,    9.5,   13.1,  46.9,  62.5,   85.2
2019, 05, 10, 22,   17.9,  86.30,     48,    8.6,   10.6,   14.3,  52.8,  69.7,   94.2
2019, 05, 10, 23,   16.3,  86.28,     56,    8.3,   10.1,   13.6,  54.2,  70.2,   94.2
2019, 05, 11, 00,   15.6,  86.25,     60,    7.7,    9.3,   12.7,  51.5,  66.6,   89.2
2019, 05, 11, 01,   14.6,  86.24,     63,    8.7,   10.6,   14.4,  59.7,  77.0,  103.1
2019, 05, 11, 02,   13.9,  86.22,     66,    9.0,   10.9,   14.8,  63.7,  81.6,  108.4
2019, 05, 11, 03,   12.5,  86.21,     72,    7.9,    9.4,   12.8,  60.4,  75.6,   99.2
2019, 05, 11, 04,   12.0,  86.23,     74,    7.9,    9.5,   12.9,  61.3,  76.3,   99.7
2019, 05, 11, 05,   10.7,  86.25,     77,    8.4,   10.1,   13.6,  66.6,  82.6,  107.4
2019, 05, 11, 06,   10.5,  86.29,     79,    8.5,   10.3,   14.0,  67.1,  82.5,  106.9
2019, 05, 11, 07,   14.4,  86.37,     69,    7.8,    9.4,   12.7,  58.9,  73.2,   95.5
2019, 05, 11, 08,   23.8,  86.53,     48,    6.1,    7.2,   10.0,  42.4,  54.1,   71.2
2019, 05, 11, 09,   27.9,  86.60,     37,    8.7,   10.7,   14.2,  58.2,  75.6,   98.7
2019, 05, 11, 10,   28.3,  86.59,     34,    9.7,   11.9,   15.5,  64.8,  83.8,  109.3
2019, 05, 11, 11,   27.2,  86.53,     35,    7.8,    9.5,   12.7,  51.1,  67.4,   89.6
2019, 05, 11, 12,   28.1,  86.47,     31,    5.5,    6.7,    9.2,  34.8,  47.5,   65.1
2019, 05, 11, 13,   29.9,  86.41,     25,    4.3,    5.3,    7.5,  26.7,  37.4,   51.9